This is the latest recevied weather packets stored in our database for station/object DO7CRZ-11. If no packets are shown the sender has not sent any weather packets the latest 10 day(s).
| Time | Temp. | Humidity | Pressure | Rain* | Wind** | Luminosity | Snow |
|---|---|---|---|---|---|---|---|
| 1777870333 | 15° C | 53% | 1013.7 hPa | 0 mm | - | 70 W/m² | - |
| 1777869732 | 15.56° C | 53% | 1013.7 hPa | 0 mm | - | 59 W/m² | - |
| 1777869130 | 15.56° C | 52% | 1013.9 hPa | 0 mm | - | 46 W/m² | - |
| 1777868533 | 15.56° C | 51% | 1013.9 hPa | 0 mm | - | 34 W/m² | - |
| 1777867926 | 15.56° C | 52% | 1013.9 hPa | 0 mm | - | 21 W/m² | - |
| 1777867329 | 15.56° C | 52% | 1013.8 hPa | 0 mm | - | 15 W/m² | - |
| 1777866732 | 15.56° C | 52% | 1013.9 hPa | 0 mm | - | 8 W/m² | - |
| 1777866136 | 15.56° C | 51% | 1013.9 hPa | 0 mm | - | 3 W/m² | - |
| 1777864932 | 15.56° C | 50% | 1013.8 hPa | 0 mm | - | 1 W/m² | - |
| 1777864326 | 16.11° C | 50% | 1013.8 hPa | 0 mm | - | 0 W/m² | - |
| 1777863729 | 16.11° C | 50% | 1013.7 hPa | 0 mm | - | 0 W/m² | - |
| 1777863132 | 16.11° C | 49% | 1013.7 hPa | 0 mm | - | 0 W/m² | - |
| 1777862535 | 16.11° C | 49% | 1013.8 hPa | 0 mm | - | 0 W/m² | - |
| 1777861928 | 16.11° C | 49% | 1013.6 hPa | 0 mm | - | 0 W/m² | - |
| 1777861334 | 16.11° C | 48% | 1013.5 hPa | 0 mm | - | 0 W/m² | - |
| 1777860736 | 16.67° C | 48% | 1013.5 hPa | 0 mm | - | 0 W/m² | - |
| 1777860129 | 16.67° C | 48% | 1013.6 hPa | 0 mm | - | 0 W/m² | - |
| 1777859531 | 16.67° C | 47% | 1013.5 hPa | 0 mm | - | 0 W/m² | - |
| 1777858934 | 17.22° C | 46% | 1013.5 hPa | 0 mm | - | 0 W/m² | - |
| 1777858328 | 17.22° C | 46% | 1013.4 hPa | 0 mm | - | 0 W/m² | - |
| 1777857721 | 17.78° C | 45% | 1013.1 hPa | 0 mm | - | 0 W/m² | - |
| 1777855929 | 17.78° C | 44% | 1013.2 hPa | 0 mm | - | 0 W/m² | - |
| 1777855332 | 17.78° C | 44% | 1013.1 hPa | 0 mm | - | 0 W/m² | - |
| 1777854735 | 17.78° C | 44% | 1013 hPa | 0 mm | - | 0 W/m² | - |
| 1777854128 | 17.78° C | 44% | 1012.9 hPa | 0 mm | - | 0 W/m² | - |
* Rain latest hour (hover to see other rain measurements)
** Current wind speed in m/s (hover to see current wind gust speed)